GW7162 Weather Reports


time (UTC)temp
C
wind
direction
speed
KPH
gust
KPH
rain 1hr
cm
rain 24hr
cm
rain mn
cm
humidity
%
barometer
mb
20260510153405 18 156 1.6 3.2 0.00 0.00 0.00 60 1018.8
20260510152902 18 164 0.0 0.0 0.00 0.00 0.00 62 1018.8
20260510152359 18 132 1.6 4.8 0.00 0.00 0.00 62 1018.9
20260510151855 18 147 1.6 3.2 0.00 0.00 0.00 62 1018.8
20260510151353 18 170 0.0 0.0 0.00 0.00 0.00 64 1018.9
20260510150849 18 99 1.6 1.6 0.00 0.00 0.00 64 1019.1
20260510150345 18 57 0.0 1.6 0.00 0.00 0.00 65 1019.2
20260510145841 18 93 0.0 0.0 0.00 0.00 0.00 65 1019.3
20260510145338 18 122 0.0 1.6 0.00 0.00 0.00 65 1019.1
20260510144834 18 168 1.6 1.6 0.00 0.00 0.00 66 1019.1
20260510144331 18 49 1.6 3.2 0.00 0.00 0.00 66 1019.1
20260510143831 18 122 0.0 0.0 0.00 0.00 0.00 66 1019.2
20260510143327 18 136 0.0 0.0 0.00 0.00 0.00 66 1018.9
20260510142825 18 142 0.0 1.6 0.00 0.00 0.00 67 1019.0
20260510142321 18 87 3.2 4.8 0.00 0.00 0.00 65 1018.9
20260510141818 18 92 0.0 1.6 0.00 0.00 0.00 66 1018.9
20260510141315 18 104 3.2 4.8 0.00 0.00 0.00 65 1018.9
20260510140813 18 151 0.0 1.6 0.00 0.00 0.00 66 1018.6
20260510140309 18 128 1.6 1.6 0.00 0.00 0.00 67 1018.6
20260510135807 18 137 3.2 3.2 0.00 0.00 0.00 66 1018.5
20260510135306 18 170 1.6 1.6 0.00 0.00 0.00 67 1018.6
20260510134801 17 119 0.0 1.6 0.00 0.00 0.00 67 1018.4
20260510134258 17 103 1.6 3.2 0.00 0.00 0.00 66 1018.2
20260510133754 17 199 3.2 3.2 0.00 0.00 0.00 66 1018.4
20260510133250 17 78 1.6 4.8 0.00 0.00 0.00 67 1018.2
20260510132746 17 185 0.0 1.6 0.00 0.00 0.00 67 1018.0
20260510132244 17 101 0.0 1.6 0.00 0.00 0.00 68 1018.0
20260510131740 17 162 0.0 0.0 0.00 0.00 0.00 69 1017.9
20260510131238 17 44 3.2 4.8 0.00 0.00 0.00 67 1017.8
20260510130734 17 166 0.0 0.0 0.00 0.00 0.00 68 1017.7
20260510130232 17 149 0.0 0.0 0.00 0.00 0.00 69 1017.7
20260510125728 17 87 3.2 6.4 0.00 0.00 0.00 68 1017.6
20260510125224 17 177 0.0 1.6 0.00 0.00 0.00 70 1017.4
20260510124721 17 163 0.0 0.0 0.00 0.00 0.00 70 1017.5
20260510124219 16 134 0.0 0.0 0.00 0.00 0.00 72 1017.3
20260510123713 16 125 1.6 3.2 0.00 0.00 0.00 72 1017.3
20260510123210 16 111 3.2 4.8 0.00 0.00 0.00 73 1017.0
20260510122706 16 163 0.0 1.6 0.00 0.00 0.00 73 1017.2
20260510122203 16 142 1.6 3.2 0.00 0.00 0.00 74 1016.9
20260510121659 16 86 0.0 1.6 0.00 0.00 0.00 75 1016.9
20260510121156 16 111 1.6 3.2 0.00 0.00 0.00 76 1016.9
20260510120653 16 132 0.0 1.6 0.00 0.00 0.00 77 1016.7
20260510120150 15 156 0.0 0.0 0.00 0.00 0.00 78 1016.7
20260510115645 15 160 0.0 0.0 0.00 0.00 0.00 79 1016.4
20260510115144 15 180 0.0 0.0 0.00 0.00 0.00 81 1016.8
20260510114639 15 181 0.0 0.0 0.00 0.00 0.00 80 1016.7
20260510114135 15 172 0.0 0.0 0.00 0.00 0.00 78 1016.4
20260510113631 15 149 0.0 0.0 0.00 0.00 0.00 79 1016.1
20260510113128 14 165 0.0 0.0 0.00 0.00 0.00 81 1016.1
20260510112625 13 173 0.0 0.0 0.00 0.00 0.00 84 1015.9
20260510112121 13 175 0.0 0.0 0.00 0.00 0.00 84 1015.8
20260510111618 13 175 0.0 0.0 0.00 0.00 0.00 83 1015.9
20260510111114 13 171 0.0 0.0 0.00 0.00 0.00 83 1015.8
20260510110610 13 170 0.0 0.0 0.00 0.00 0.00 83 1015.8
20260510110107 13 170 0.0 0.0 0.00 0.00 0.00 84 1015.5
20260510105602 13 170 0.0 0.0 0.00 0.00 0.00 84 1015.6
20260510105057 13 170 0.0 0.0 0.00 0.00 0.00 85 1015.3
20260510104554 13 175 0.0 0.0 0.00 0.00 0.00 87 1015.5
20260510104050 13 173 0.0 0.0 0.00 0.00 0.00 87 1015.4
20260510103547 13 137 0.0 0.0 0.00 0.00 0.00 88 1015.6
20260510103043 13 170 0.0 0.0 0.00 0.00 0.00 88 1015.5
20260510102539 13 171 0.0 0.0 0.00 0.00 0.00 88 1015.5
20260510102035 13 171 0.0 0.0 0.00 0.00 0.00 88 1015.7
20260510101533 13 171 0.0 0.0 0.00 0.00 0.00 88 1015.5
20260510101032 13 171 0.0 0.0 0.00 0.00 0.00 88 1015.2
20260510100527 13 171 0.0 0.0 0.00 0.00 0.00 88 1015.2
20260510100024 13 171 0.0 0.0 0.00 0.00 0.00 88 1015.2
20260510095520 13 171 0.0 0.0 0.00 0.00 0.00 88 1015.1
20260510095019 13 171 0.0 0.0 0.00 0.00 0.00 87 1014.9
20260510094514 13 171 0.0 0.0 0.00 0.00 0.00 87 1015.1
20260510094010 13 171 0.0 0.0 0.00 0.00 0.00 87 1015.1
20260510093506 13 172 0.0 0.0 0.00 0.00 0.00 87 1015.1
20260510093003 13 171 0.0 0.0 0.00 0.00 0.00 86 1015.0
20260510092500 13 172 0.0 0.0 0.00 0.00 0.00 86 1014.8
20260510091959 13 172 0.0 0.0 0.00 0.00 0.00 86 1014.5
20260510091457 13 172 0.0 0.0 0.00 0.00 0.00 86 1014.5
20260510090953 13 172 0.0 0.0 0.00 0.00 0.00 85 1014.8
20260510090450 14 172 0.0 0.0 0.00 0.00 0.00 85 1014.7
20260510085945 14 171 0.0 0.0 0.00 0.00 0.00 85 1014.5
20260510085441 14 171 0.0 0.0 0.00 0.00 0.00 85 1014.5
20260510084936 14 180 0.0 0.0 0.00 0.00 0.00 84 1014.6
20260510084434 14 180 0.0 0.0 0.00 0.00 0.00 84 1014.6
20260510083930 14 180 0.0 0.0 0.00 0.00 0.00 84 1014.4
20260510083427 14 179 0.0 0.0 0.00 0.00 0.00 84 1014.3
20260510082922 14 178 0.0 0.0 0.00 0.00 0.00 83 1014.2
20260510082420 14 172 0.0 0.0 0.00 0.00 0.00 82 1014.1
20260510081919 14 153 0.0 0.0 0.00 0.00 0.00 82 1014.2
20260510081415 14 186 0.0 0.0 0.00 0.00 0.00 82 1014.0
20260510080912 14 184 0.0 0.0 0.00 0.00 0.00 82 1014.3
20260510080411 14 181 0.0 0.0 0.00 0.00 0.00 83 1014.5
20260510075908 14 169 0.0 0.0 0.00 0.00 0.00 83 1014.7
20260510075406 14 184 0.0 0.0 0.00 0.00 0.00 84 1014.7
20260510074902 14 169 0.0 0.0 0.00 0.00 0.00 83 1014.4
20260510074359 14 171 0.0 0.0 0.00 0.00 0.00 84 1014.5
20260510073855 14 171 0.0 0.0 0.00 0.00 0.00 83 1014.4
20260510073351 14 171 0.0 0.0 0.00 0.00 0.00 83 1014.4
20260510072847 14 171 0.0 0.0 0.00 0.00 0.00 82 1014.3
20260510072344 14 171 0.0 0.0 0.00 0.00 0.00 81 1014.3
20260510071840 14 171 0.0 0.0 0.00 0.00 0.00 82 1014.1
20260510071337 15 171 0.0 0.0 0.00 0.00 0.00 81 1014.3
20260510070836 15 176 0.0 0.0 0.00 0.00 0.00 82 1014.2
20260510070332 15 185 0.0 0.0 0.00 0.00 0.00 81 1014.2
20260510065827 15 177 0.0 0.0 0.00 0.00 0.00 78 1014.2
20260510065324 15 176 0.0 0.0 0.00 0.00 0.00 77 1014.3
20260510064821 15 176 0.0 0.0 0.00 0.00 0.00 76 1014.3
20260510064319 15 176 0.0 0.0 0.00 0.00 0.00 77 1014.0
20260510063814 15 176 0.0 0.0 0.00 0.00 0.00 75 1014.1
20260510063311 16 176 0.0 0.0 0.00 0.00 0.00 75 1014.1
20260510062808 16 182 0.0 0.0 0.00 0.00 0.00 74 1014.1
20260510062306 16 167 0.0 0.0 0.00 0.00 0.00 76 1014.3
20260510061759 16 131 3.2 3.2 0.00 0.00 0.00 75 1014.3
20260510061256 16 189 1.6 1.6 0.00 0.00 0.00 78 1014.3
20260510060752 15 169 1.6 3.2 0.00 0.00 0.00 79 1014.3
20260510060249 15 8 3.2 3.2 0.00 0.00 0.00 82 1014.0
20260510055746 15 179 0.0 0.0 0.00 0.00 0.00 82 1013.8
20260510055244 15 180 0.0 0.0 0.00 0.00 0.00 82 1013.8
20260510054744 15 180 0.0 0.0 0.00 0.00 0.00 82 1014.0
20260510054240 15 180 0.0 0.0 0.00 0.00 0.00 82 1013.8
20260510053739 15 180 0.0 0.0 0.00 0.00 0.00 81 1014.0
20260510053236 15 180 0.0 0.0 0.00 0.00 0.00 81 1014.1
20260510052732 15 180 0.0 0.0 0.00 0.00 0.00 81 1014.2
20260510052228 15 180 0.0 0.0 0.00 0.00 0.00 80 1014.1
20260510051724 15 180 0.0 0.0 0.00 0.00 0.00 79 1013.8
20260510051220 15 180 0.0 0.0 0.00 0.00 0.00 80 1014.0
20260510050718 15 180 0.0 0.0 0.00 0.00 0.00 79 1013.7
20260510050215 15 180 0.0 0.0 0.00 0.00 0.00 80 1013.6
20260510045712 15 195 3.2 3.2 0.00 0.00 0.00 79 1013.7
20260510045208 16 185 0.0 0.0 0.00 0.00 0.00 77 1013.6
20260510044704 16 185 0.0 0.0 0.00 0.00 0.00 77 1013.5
20260510044202 16 185 0.0 0.0 0.00 0.00 0.00 77 1013.6
20260510043657 16 185 0.0 0.0 0.00 0.00 0.00 75 1013.5
20260510043155 16 185 0.0 0.0 0.00 0.00 0.00 75 1013.7
20260510042652 15 185 0.0 0.0 0.00 0.00 0.00 76 1013.6
20260510042148 15 185 0.0 0.0 0.00 0.00 0.00 77 1013.7
20260510041645 15 185 0.0 0.0 0.00 0.00 0.00 76 1013.6
20260510041142 15 185 0.0 0.0 0.00 0.00 0.00 76 1013.6
20260510040639 16 185 0.0 0.0 0.00 0.00 0.00 75 1013.5
20260510040136 16 185 0.0 0.0 0.00 0.03 0.03 73 1013.3
20260510035632 16 185 0.0 0.0 0.00 0.03 0.03 73 1013.3
20260510035127 16 185 0.0 0.0 0.00 0.03 0.03 72 1013.1
20260510034624 16 185 0.0 0.0 0.00 0.03 0.03 71 1013.2
20260510034121 16 185 0.0 0.0 0.00 0.03 0.03 71 1013.3
20260510033617 16 185 0.0 0.0 0.00 0.03 0.03 71 1013.2
20260510033115 16 185 0.0 0.0 0.00 0.03 0.03 71 1013.1
20260510032611 16 186 0.0 0.0 0.00 0.03 0.03 71 1013.2
20260510032107 16 184 0.0 0.0 0.00 0.03 0.03 67 1013.2
20260510031602 16 184 0.0 0.0 0.00 0.03 0.03 67 1013.0
20260510031058 17 184 0.0 0.0 0.00 0.03 0.03 67 1013.1
20260510030553 17 184 0.0 0.0 0.00 0.03 0.03 68 1013.0
20260510030051 17 184 0.0 0.0 0.00 0.03 0.03 67 1013.0
20260510025548 17 184 0.0 0.0 0.00 0.03 0.03 66 1013.0
20260510025046 17 184 0.0 0.0 0.00 0.03 0.03 65 1012.8
20260510024542 17 184 0.0 0.0 0.00 0.03 0.03 63 1012.5
20260510024038 18 184 0.0 0.0 0.00 0.03 0.03 64 1012.4
20260510023535 17 184 0.0 0.0 0.00 0.03 0.03 62 1012.4
20260510023032 17 184 0.0 0.0 0.00 0.03 0.03 61 1012.2
20260510022531 18 184 0.0 0.0 0.00 0.03 0.03 61 1012.1
20260510022026 18 184 0.0 0.0 0.00 0.03 0.03 60 1012.1
20260510021523 18 184 0.0 0.0 0.00 0.03 0.03 60 1011.9
20260510021021 18 184 0.0 0.0 0.00 0.03 0.03 59 1011.9
20260510020520 18 184 0.0 0.0 0.00 0.03 0.03 59 1011.7
20260510020016 18 184 0.0 0.0 0.00 0.03 0.03 58 1011.9
20260510015512 19 184 0.0 0.0 0.00 0.03 0.03 57 1011.7
20260510015008 19 184 0.0 0.0 0.00 0.03 0.03 58 1011.4
20260510014505 19 184 0.0 0.0 0.00 0.03 0.03 55 1011.3
20260510014002 20 184 0.0 0.0 0.00 0.03 0.03 54 1011.3
20260510013456 20 184 0.0 0.0 0.00 0.03 0.03 53 1011.0
20260510012952 20 184 0.0 0.0 0.00 0.03 0.03 53 1011.0
20260510012447 20 184 0.0 0.0 0.00 0.03 0.03 53 1011.0
20260510011942 20 184 0.0 0.0 0.00 0.03 0.03 52 1011.2
20260510011437 21 184 0.0 0.0 0.00 0.03 0.03 51 1010.9
20260510010933 21 184 0.0 0.0 0.00 0.03 0.03 51 1010.9
20260510010431 21 184 0.0 0.0 0.00 0.03 0.03 51 1011.0
20260510005928 22 184 0.0 0.0 0.00 0.03 0.03 50 1010.9
20260510005423 22 184 0.0 0.0 0.00 0.03 0.03 49 1010.9
20260510004921 22 184 0.0 0.0 0.00 0.03 0.03 49 1010.9
20260510004419 22 184 0.0 0.0 0.00 0.03 0.03 47 1010.7
20260510003916 23 184 0.0 0.0 0.00 0.03 0.03 47 1010.5
20260510003413 23 184 0.0 0.0 0.00 0.03 0.03 45 1010.6
20260510002912 23 184 0.0 0.0 0.00 0.03 0.03 43 1010.6
20260510002409 24 184 0.0 0.0 0.00 0.03 0.03 43 1010.5
20260510001906 25 184 0.0 0.0 0.00 0.03 0.03 41 1010.5
20260510001404 25 184 0.0 0.0 0.00 0.03 0.03 40 1010.5
20260510000900 25 185 0.0 0.0 0.00 0.03 0.03 37 1010.5
20260510000357 25 182 0.0 0.0 0.00 0.03 0.03 38 1010.6
20260509235853 25 172 0.0 0.0 0.00 0.03 0.03 37 1010.4
20260509235350 25 182 0.0 0.0 0.00 0.03 0.03 36 1010.6
20260509234846 25 166 0.0 0.0 0.00 0.03 0.03 37 1010.5
20260509234343 25 182 0.0 0.0 0.00 0.03 0.03 36 1010.7
20260509233842 25 180 0.0 0.0 0.00 0.03 0.03 36 1010.7
20260509233339 26 185 0.0 0.0 0.00 0.03 0.03 34 1010.8
20260509232834 26 179 0.0 0.0 0.00 0.03 0.03 33 1010.6
20260509232333 26 174 0.0 0.0 0.00 0.03 0.03 36 1010.5
20260509231828 26 186 0.0 1.6 0.00 0.03 0.03 34 1010.6
20260509231325 26 200 0.0 0.0 0.00 0.03 0.03 35 1010.6
20260509230823 26 193 1.6 1.6 0.00 0.03 0.03 34 1010.7
20260509230320 27 190 0.0 0.0 0.00 0.03 0.03 34 1010.6
20260509225815 26 182 0.0 0.0 0.00 0.03 0.03 35 1010.6
20260509225312 26 174 0.0 0.0 0.00 0.03 0.03 36 1010.6
20260509224808 26 185 0.0 0.0 0.00 0.03 0.03 35 1010.6
20260509224304 26 179 0.0 0.0 0.00 0.03 0.03 34 1010.5
20260509223801 26 170 0.0 0.0 0.00 0.03 0.03 33 1010.5
20260509223258 26 164 1.6 1.6 0.00 0.03 0.03 37 1010.5
20260509222755 26 203 6.4 9.7 0.00 0.03 0.03 37 1010.4
20260509222250 26 170 0.0 0.0 0.00 0.03 0.03 35 1010.7
20260509221746 26 190 0.0 0.0 0.00 0.03 0.03 35 1010.6
20260509221243 26 169 0.0 0.0 0.00 0.03 0.03 36 1010.7
20260509220739 26 183 0.0 0.0 0.00 0.03 0.03 36 1010.6
20260509220235 27 186 0.0 0.0 0.00 0.03 0.03 36 1010.7
20260509215731 27 135 0.0 0.0 0.00 0.03 0.03 32 1010.6
20260509215227 27 186 0.0 0.0 0.00 0.03 0.03 32 1010.7
20260509214725 27 171 0.0 0.0 0.00 0.03 0.03 34 1010.7
20260509214222 27 206 1.6 4.8 0.00 0.03 0.03 35 1010.7
20260509213719 27 176 0.0 1.6 0.00 0.03 0.03 36 1010.6
20260509213214 27 167 3.2 3.2 0.00 0.03 0.03 34 1010.5
20260509212712 27 175 0.0 1.6 0.00 0.03 0.03 33 1010.7
20260509212209 26 183 4.8 4.8 0.00 0.03 0.03 33 1010.7
20260509211705 26 177 0.0 0.0 0.00 0.03 0.03 31 1010.8
20260509211201 27 185 0.0 0.0 0.00 0.03 0.03 32 1010.8
20260509210658 27 147 0.0 0.0 0.00 0.03 0.03 36 1010.7
20260509210155 27 138 4.8 4.8 0.00 0.03 0.03 32 1010.9
20260509205650 27 190 0.0 0.0 0.00 0.03 0.03 31 1010.8
20260509205150 27 205 1.6 1.6 0.00 0.03 0.03 29 1011.0
20260509204646 28 197 0.0 0.0 0.00 0.03 0.03 35 1011.0
20260509204142 28 202 1.6 3.2 0.00 0.03 0.03 32 1010.9
20260509203639 28 182 0.0 1.6 0.00 0.03 0.03 34 1010.9
20260509203137 28 195 0.0 0.0 0.00 0.03 0.03 35 1010.9
20260509202637 28 186 0.0 0.0 0.00 0.03 0.03 38 1011.0
20260509202133 28 299 0.0 1.6 0.00 0.03 0.03 28 1011.3
20260509201627 27 154 0.0 0.0 0.00 0.03 0.03 30 1011.3
20260509201126 28 208 3.2 3.2 0.00 0.03 0.03 32 1011.3
20260509200621 28 141 1.6 1.6 0.00 0.03 0.03 34 1011.5
20260509200117 28 179 0.0 0.0 0.00 0.03 0.03 40 1011.4
20260509195613 28 198 3.2 4.8 0.00 0.03 0.03 29 1011.5
20260509195107 28 185 0.0 0.0 0.00 0.03 0.03 38 1011.5
20260509194607 27 200 0.0 0.0 0.00 0.03 0.03 31 1011.6
20260509194105 27 182 0.0 1.6 0.00 0.03 0.03 33 1011.7
20260509193600 28 235 0.0 0.0 0.00 0.03 0.03 32 1011.7
20260509193056 28 190 0.0 1.6 0.00 0.03 0.03 34 1011.7
20260509192553 28 162 0.0 1.6 0.00 0.03 0.03 32 1011.7
20260509192048 28 169 0.0 0.0 0.00 0.03 0.03 31 1011.7
20260509191548 28 201 0.0 1.6 0.00 0.03 0.03 35 1011.7
20260509191045 28 194 0.0 0.0 0.00 0.03 0.03 38 1011.8
20260509190541 28 173 1.6 3.2 0.00 0.03 0.03 37 1011.7
20260509190040 27 206 4.8 6.4 0.00 0.03 0.03 32 1011.7
20260509185537 27 191 0.0 0.0 0.00 0.03 0.03 34 1011.9
20260509185033 27 187 0.0 1.6 0.00 0.03 0.03 36 1011.8
20260509184531 27 354 0.0 1.6 0.00 0.03 0.03 38 1011.8
20260509184027 27 206 3.2 6.4 0.00 0.03 0.03 34 1011.6
20260509183522 27 92 0.0 0.0 0.00 0.03 0.03 36 1011.8
20260509183019 27 161 1.6 1.6 0.00 0.03 0.03 35 1011.7
20260509182515 27 195 3.2 3.2 0.00 0.03 0.03 35 1011.9
20260509182012 27 191 0.0 1.6 0.00 0.03 0.03 34 1011.8
20260509181511 27 199 0.0 0.0 0.00 0.03 0.03 36 1011.8
20260509181008 27 193 0.0 0.0 0.00 0.03 0.03 41 1011.7
20260509180503 27 175 0.0 0.0 0.00 0.03 0.03 34 1011.7
20260509180001 26 173 0.0 0.0 0.00 0.03 0.03 40 1011.9
20260509175456 26 185 1.6 1.6 0.00 0.03 0.03 37 1011.9
20260509174953 26 204 3.2 4.8 0.00 0.03 0.03 33 1011.8
20260509174449 27 183 0.0 1.6 0.00 0.03 0.03 38 1012.0
20260509173944 26 197 3.2 4.8 0.00 0.03 0.03 34 1011.8
20260509173439 26 187 0.0 0.0 0.00 0.03 0.03 37 1012.0
20260509172936 26 189 0.0 0.0 0.00 0.03 0.03 46 1012.0
20260509172433 26 181 0.0 0.0 0.00 0.03 0.03 40 1012.0
20260509171928 26 184 0.0 0.0 0.00 0.03 0.03 43 1012.2
20260509171424 25 186 0.0 0.0 0.00 0.03 0.03 44 1012.3
20260509170921 25 191 3.2 4.8 0.00 0.03 0.03 39 1012.1
20260509170416 26 178 0.0 0.0 0.00 0.03 0.03 41 1012.2
20260509165913 26 188 0.0 0.0 0.00 0.03 0.03 40 1012.2
20260509165412 25 181 0.0 0.0 0.00 0.03 0.03 44 1012.2
20260509164908 25 216 0.0 0.0 0.00 0.03 0.03 42 1012.1
20260509164405 25 207 3.2 4.8 0.00 0.03 0.03 44 1012.1
20260509163901 25 214 0.0 0.0 0.00 0.03 0.03 46 1012.2
20260509163358 25 33 0.0 1.6 0.00 0.03 0.03 44 1012.0
20260509162857 25 174 0.0 0.0 0.00 0.03 0.03 45 1012.1
20260509162355 25 185 0.0 0.0 0.00 0.03 0.03 47 1012.1
20260509161852 25 152 1.6 3.2 0.00 0.03 0.03 46 1012.2
20260509161348 25 204 0.0 1.6 0.00 0.03 0.03 46 1012.1
20260509160844 24 138 0.0 0.0 0.00 0.03 0.03 50 1012.1
20260509160340 24 192 1.6 1.6 0.00 0.03 0.03 48 1012.1
20260509155835 24 194 0.0 0.0 0.00 0.03 0.03 47 1012.1
20260509155331 23 215 0.0 1.6 0.00 0.03 0.03 52 1012.3
20260509154828 24 193 6.4 6.4 0.00 0.03 0.03 49 1012.0
20260509154324 23 196 3.2 3.2 0.00 0.03 0.03 51 1012.0